Weather History for Kansas City, MO

Change the Weather History Date:

Wednesday, July 18, 2012

  Actual Average Record
Temperature  
Mean Temperature 94 °F -  
Max Temperature 106 °F 88 °F 106 °F (2012)
Min Temperature 84 °F 70 °F 64 °F (2004)
Cooling Degree Days 30    
Growing Degree Days 44 (Base 50)    
Moisture  
Dew Point 62 °F    
Average Humidity 35    
Maximum Humidity 49    
Minimum Humidity 22    
Precipitation  
Precipitation 0.00 in - - ()
Sea Level Pressure  
Sea Level Pressure 29.83 in    
Wind  
Wind Speed 10 mph (SSW)    
Max Wind Speed 16 mph    
Max Gust Speed 24 mph    
Visibility 10 miles    
Events      
Averages and records for this station are not official NWS values.
T = Trace of Precipitation, MM = Missing Value Source: NWS Daily Summary

Daily Weather History Graph

Daily Weather History Graph

Search for Another Location

Airport:

Trip Planner

Search our weather history database for the weather conditions in past years. The results will help you decide how hot, cold, wet, or windy it might be!

Date:

Astronomy

Jul. 18, 2012 Rise Set
Actual Time 6:07 AM CDT 8:41 PM CDT
Civil Twilight 5:36 AM CDT 9:12 PM CDT
Nautical Twilight 4:57 AM CDT 9:50 PM CDT
Astronomical Twilight 4:14 AM CDT 10:33 PM CDT
Moon 5:42 AM CDT (7/18) 8:12 PM CDT (7/18)
Length of Visible Light 15h 35m
Length of Day
14h 34m
Waning Crescent, 0% of the Moon is Illuminated
Jul 18
Waning Crescent
Jul 18
New
Jul 26
First Quarter
Aug 1
Full
Aug 9
Last Quarter

Hourly Weather History & Observations

Time (CDT) Temp. Heat Index Dew Point Humidity Pressure Visibility Wind Dir Wind Speed Gust Speed Precip Events Conditions
12:54 AM 88.0 °F 88.7 °F 63.0 °F 43% 29.83 in 10.0 mi SSW 8.1 mph - N/A   Clear
1:54 AM 87.8 °F 88.5 °F 62.6 °F 43% 29.86 in 10.0 mi SSW 10.4 mph - N/A   Clear
2:54 AM 86.0 °F 86.8 °F 63.0 °F 46% 29.83 in 10.0 mi SSW 6.9 mph - N/A   Clear
3:54 AM 86.0 °F 86.3 °F 62.1 °F 44% 29.83 in 10.0 mi SSW 9.2 mph - N/A   Clear
4:54 AM 84.0 °F 84.9 °F 63.0 °F 49% 29.84 in 10.0 mi SSW 9.2 mph - N/A   Clear
5:54 AM 84.9 °F 85.9 °F 63.0 °F 48% 29.86 in 10.0 mi SSW 11.5 mph - N/A   Clear
6:54 AM 84.9 °F 85.9 °F 63.0 °F 48% 29.87 in 10.0 mi SSW 10.4 mph - N/A   Clear
7:54 AM 87.1 °F 88.3 °F 64.0 °F 46% 29.88 in 10.0 mi SW 11.5 mph - N/A   Clear
8:54 AM 89.1 °F 91.0 °F 64.9 °F 45% 29.89 in 10.0 mi SW 8.1 mph - N/A   Clear
9:54 AM 91.9 °F 94.1 °F 64.9 °F 41% 29.89 in 10.0 mi SSW 15.0 mph 19.6 mph N/A   Partly Cloudy
10:54 AM 97.0 °F 99.9 °F 64.9 °F 35% 29.88 in 10.0 mi SSW 9.2 mph - N/A   Clear
11:54 AM 100.0 °F 103.0 °F 64.0 °F 31% 29.88 in 10.0 mi South 11.5 mph - N/A   Partly Cloudy
12:54 PM 102.0 °F 103.9 °F 62.1 °F 27% 29.85 in 10.0 mi SSW 12.7 mph 24.2 mph N/A   Clear
1:54 PM 102.2 °F 103.6 °F 60.8 °F 26% 29.88 in 10.0 mi South 16.1 mph - N/A   Clear
2:54 PM 102.9 °F 104.2 °F 61.0 °F 25% 29.83 in 10.0 mi South 9.2 mph 19.6 mph N/A   Partly Cloudy
3:54 PM 102.9 °F 103.6 °F 60.1 °F 24% 29.81 in 10.0 mi SSW 9.2 mph 20.7 mph N/A   Partly Cloudy
4:54 PM 105.1 °F 105.7 °F 59.0 °F 22% 29.79 in 10.0 mi SSW 10.4 mph 21.9 mph N/A   Scattered Clouds
5:54 PM 105.1 °F 105.7 °F 59.0 °F 22% 29.77 in 10.0 mi SSW 13.8 mph 19.6 mph N/A   Clear
6:54 PM 102.9 °F 103.0 °F 57.9 °F 23% 29.75 in 10.0 mi WSW 6.9 mph - N/A   Clear
7:54 PM 102.0 °F 101.6 °F 57.9 °F 23% 29.76 in 10.0 mi SW 8.1 mph - N/A   Clear
8:54 PM 98.1 °F 99.1 °F 62.1 °F 30% 29.78 in 10.0 mi South 10.4 mph - N/A   Partly Cloudy
9:54 PM 96.1 °F 96.9 °F 62.1 °F 32% 29.80 in 10.0 mi South 10.4 mph - N/A   Partly Cloudy
10:54 PM 93.9 °F 94.8 °F 62.1 °F 35% 29.83 in 10.0 mi WSW 3.5 mph - N/A   Clear
11:54 PM 93.0 °F 93.0 °F 61.0 °F 34% 29.84 in 10.0 mi SW 3.5 mph - N/A   Clear